This demonstration page uses our WeatherBlox Daily Observations layout. Learn more.

Left ArrowRight Arrow

Hourly Observations for January 20, 2017

Temp ( °F °C ) Dew Point ( °F °C ) Humidity (%) Winds ( mph kmh ) Pressure ( in mb ) Visibility ( mi km ) Precip ( " mm )
12:13 am 00:13 Cloudy with Light Rain 47 8.3 44 6.7 90 90 S 23 37 29.53 1000 10 16 0.00 0.03
12:53 am 00:53 Cloudy with Light Rain 47 8.3 42 5.6 83 83 SSE 18 30 29.47 998 10 16 0.06 1.52
1:01 am 01:01 Cloudy with Light Rain 46 7.8 42 5.6 86 86 SSE 21 33 29.50 999 10 16 0.00 0.03
1:08 am 01:08 Cloudy with Light Rain 46 8 43 6 87 87 SSE 21 33 29.50 999 10 16 0.00 0.00
1:53 am 01:53 Cloudy 47 8.3 43 6.1 86 86 SSE 25 41 29.41 996 10 16 0.01 0.25
2:36 am 02:36 Cloudy 46 8 43 6 87 87 SSE 32 52 29.41 996 10 16 0.00 0.00
2:53 am 02:53 Cloudy with Light Rain 47 8.3 42 5.6 83 83 SSE 31 50 29.36 994 10 16 0.00 0.03
3:53 am 03:53 Cloudy with Rain 44 6.7 42 5.6 93 93 SSE 33 54 29.33 993 6 10 0.00 0.03
4:07 am 04:07 Cloudy with Rain 44 6.7 42 5.6 93 93 SSE 33 54 29.35 994 5 8 0.04 1.02
4:53 am 04:53 Cloudy with Light Rain 46 7.8 42 5.6 86 86 S 26 43 29.28 991 9 14 0.08 2.03
5:53 am 05:53 Cloudy with Light Rain 45 7.2 42 5.6 90 90 SSE 21 33 29.24 990 7 11 0.07 1.78
6:01 am 06:01 Cloudy with Light Rain 45 7.2 42 5.6 90 90 S 20 31 29.26 991 9 14 0.00 0.03
6:53 am 06:53 Cloudy with Light Rain 45 7.2 42 5.6 90 90 S 25 41 29.25 991 10 16 0.02 0.51
7:53 am 07:53 Cloudy with Light Rain 44 6.7 41 5 89 89 S 22 35 29.22 989 10 16 0.11 2.79
8:53 am 08:53 Cloudy with Rain 45 7.2 43 6.1 93 93 SSW 9 15 29.23 990 4 6 0.02 0.51
8:58 am 08:58 Cloudy with Rain 45 7 43 6 93 93 WSW 8 13 29.26 991 3 4 0.00 0.00
9:53 am 09:53 Cloudy with Light Rain 43 6.1 42 5.6 97 97 N 5 7 29.25 991 6 10 0.32 8.13
10:53 am 10:53 Cloudy with Rain 45 7.2 43 6.1 93 93 SSW 13 20 29.24 990 3 5 0.21 5.33
11:53 am 11:53 Cloudy with Light Rain 46 7.8 44 6.7 93 93 SSW 14 22 29.22 990 7 11 0.18 4.57
12:53 pm 12:53 Cloudy 47 8.3 44 6.7 90 90 S 20 31 29.19 989 10 16 0.03 0.76
1:18 pm 13:18 Cloudy 46 8 45 7 93 93 S 17 28 29.18 988 10 16 0.00 0.00
1:53 pm 13:53 Cloudy 47 8.3 44 6.7 90 90 S 17 28 29.18 988 10 16 0.00 0.00
2:39 pm 14:39 Cloudy 47 8.3 44 6.7 90 90 S 21 33 29.18 988 10 16 0.00 0.00
2:53 pm 14:53 Cloudy 47 8.3 44 6.7 90 90 S 20 31 29.18 988 10 16 0.00 0.00
3:53 pm 15:53 Cloudy with Light Rain 48 8.9 44 6.7 86 86 S 21 33 29.18 988 10 16 0.01 0.25
4:23 pm 16:23 Cloudy with Thunderstorms 48 9 45 7 87 87 SSE 16 26 29.18 988 9 14 0.00 0.00
4:37 pm 16:37 Cloudy with Rain 46 7.8 43 6.1 89 89 WNW 14 22 29.21 989 4 6 0.00 0.03
4:41 pm 16:41 Cloudy with Heavy Rain 44 6.7 42 5.6 93 93 WNW 14 22 29.18 988 2 2 0.02 0.51
4:48 pm 16:48 Cloudy with Heavy Rain 45 7 43 6 93 93 WNW 12 19 29.18 988 5 8 0.00 0.00
4:53 pm 16:53 Cloudy with Rain 43 6.1 42 5.6 97 97 WNW 9 15 29.18 988 2 3 0.21 5.33
4:55 pm 16:55 Cloudy with Light Rain 44 6.7 42 5.6 93 93 WNW 9 15 29.18 988 3 4 0.00 0.03
5:02 pm 17:02 Cloudy with Light Rain 45 7 43 6 93 93 W 9 15 29.18 988 9 14 0.00 0.00
5:53 pm 17:53 Cloudy 47 8.3 44 6.7 90 90 SSE 8 13 29.21 989 10 16 0.02 0.51
6:40 pm 18:40 Cloudy 45 7 43 6 93 93 NNE 5 7 29.26 991 10 16 0.00 0.00
6:53 pm 18:53 Cloudy 45 7.2 42 5.6 90 90 N 5 7 29.24 990 10 16 0.00 0.00
7:53 pm 19:53 Cloudy 44 6.7 42 5.6 93 93 N 6 9 29.26 991 10 16 0.00 0.00
8:00 pm 20:00 Partly Cloudy 43 6 41 5 93 93 NNE 7 11 29.29 992 10 16 0.00 0.00
8:53 pm 20:53 Cloudy 43 6.1 41 5 93 93 NNE 5 7 29.29 992 10 16 0.00 0.00
9:53 pm 21:53 Cloudy 44 6.7 42 5.6 93 93 Calm 29.31 993 10 16 0.00 0.00
10:53 pm 22:53 Cloudy 46 7.8 43 6.1 89 89 S 14 22 29.32 993 10 16 0.00 0.00
11:38 pm 23:38 Mostly Cloudy 45 7 43 6 93 93 S 10 17 29.38 995 10 16 0.00 0.00
11:53 pm 23:53 Mostly Clear 45 7.2 42 5.6 90 90 S 10 17 29.35 994 10 16 0.00 0.00

Powered by AerisWeather